Weather History for Anniston, AL

Change the Weather History Date:

Friday, May 17, 2013

  Actual Average Record
Temperature  
Mean Temperature 73 °F 70 °F  
Max Temperature 81 °F 81 °F 94 °F (1962)
Min Temperature 64 °F 59 °F 40 °F (1956)
Cooling Degree Days 7    
Growing Degree Days 22 (Base 50)    
Moisture  
Dew Point 63 °F    
Average Humidity 69    
Maximum Humidity 87    
Minimum Humidity 51    
Precipitation  
Precipitation 1.40 in 0.14 in 1.40 in (2013)
Month to date precipitation 4.31 2.42  
Year to date precipitation 29.74 21.09  
Sea Level Pressure  
Sea Level Pressure 30.04 in    
Wind  
Wind Speed 3 mph (SE)    
Max Wind Speed 10 mph    
Max Gust Speed 17 mph    
Visibility 8 miles    
Events Fog , Rain , Thunderstorm    
T = Trace of Precipitation, MM = Missing Value Source: NWS Daily Summary

Daily Weather History Graph

Daily Weather History Graph

Search for Another Location

Airport:

Trip Planner

Search our weather history database for the weather conditions in past years. The results will help you decide how hot, cold, wet, or windy it might be!

Date:

Astronomy

May. 17, 2013 Rise Set
Actual Time 5:41 AM CDT 7:38 PM CDT
Civil Twilight 5:13 AM CDT 8:06 PM CDT
Nautical Twilight 4:40 AM CDT 8:40 PM CDT
Astronomical Twilight 4:04 AM CDT 9:15 PM CDT
Moon 12:04 PM CDT (5/17) 12:38 AM CDT (5/17)
Length of Visible Light 14h 52m
Length of Day
13h 57m
Waxing Crescent, 45% of the Moon is Illuminated
May 17
Waxing Crescent
May 17
First Quarter
May 24
Full
May 31
Last Quarter
Jun 8
New

Hourly Weather History & Observations

Time (CDT) Temp. Heat Index Dew Point Humidity Pressure Visibility Wind Dir Wind Speed Gust Speed Precip Events Conditions
12:53 AM 66.0 °F - 60.1 °F 81% 30.00 in 10.0 mi East 3.5 mph - N/A   Clear
1:53 AM 66.9 °F - 59.0 °F 76% 30.00 in 10.0 mi ENE 4.6 mph - N/A   Clear
2:53 AM 64.9 °F - 61.0 °F 87% 30.01 in 10.0 mi Calm Calm - N/A   Clear
3:53 AM 64.9 °F - 61.0 °F 87% 30.02 in 9.0 mi Calm Calm - N/A   Clear
4:53 AM 64.9 °F - 61.0 °F 87% 30.04 in 9.0 mi Calm Calm - N/A   Clear
5:53 AM 64.9 °F - 61.0 °F 87% 30.04 in 9.0 mi NE 3.5 mph - N/A   Clear
7:53 AM 68.0 °F - 62.1 °F 81% 30.06 in 9.0 mi Calm Calm - 0.00 in   Scattered Clouds
8:53 AM 72.0 °F - 63.0 °F 73% 30.08 in 10.0 mi Calm Calm - N/A   Scattered Clouds
9:01 AM 73.4 °F - 62.6 °F 69% 30.10 in 10.0 mi West 3.5 mph - N/A   Mostly Cloudy
9:35 AM 73.4 °F - 62.6 °F 69% 30.09 in 10.0 mi WSW 6.9 mph - N/A   Mostly Cloudy
9:53 AM 75.0 °F - 63.0 °F 66% 30.07 in 10.0 mi WSW 9.2 mph - N/A   Scattered Clouds
10:53 AM 75.9 °F - 61.0 °F 60% 30.08 in 10.0 mi SSW 5.8 mph - N/A   Mostly Cloudy
11:53 AM 78.1 °F - 62.1 °F 58% 30.07 in 10.0 mi SW 6.9 mph - N/A   Clear
12:53 PM 79.0 °F - 59.0 °F 50% 30.05 in 10.0 mi SW 4.6 mph - N/A   Mostly Cloudy
1:53 PM 80.1 °F 80.9 °F 60.1 °F 50% 30.04 in 10.0 mi Variable 5.8 mph - N/A   Mostly Cloudy
2:53 PM 78.1 °F - 60.1 °F 54% 30.03 in 10.0 mi South 8.1 mph - N/A   Scattered Clouds
3:53 PM 77.0 °F - 62.1 °F 60% 30.01 in 10.0 mi SSE 3.5 mph - 0.00 in Rain Light Rain
4:53 PM 77.0 °F - 61.0 °F 58% 30.00 in 10.0 mi ESE 3.5 mph - 0.00 in   Mostly Cloudy
5:53 PM 75.9 °F - 63.0 °F 64% 29.98 in 10.0 mi Calm Calm - N/A   Mostly Cloudy
6:53 PM 75.9 °F - 62.1 °F 62% 29.98 in 10.0 mi ESE 5.8 mph - N/A   Overcast
7:53 PM 73.9 °F - 63.0 °F 68% 30.01 in 8.0 mi Calm Calm - 0.00 in Rain , Thunderstorm Light Rain
8:09 PM 71.6 °F - 64.4 °F 78% 30.03 in 2.0 mi Calm Calm - 0.10 in Rain , Thunderstorm Rain
8:20 PM 69.8 °F - 66.2 °F 88% 30.04 in 4.0 mi Calm Calm - 0.13 in Rain , Thunderstorm Rain
8:53 PM 69.1 °F - 64.9 °F 87% 30.00 in 7.0 mi ESE 3.5 mph - 0.20 in Rain Light Rain
9:21 PM 68.0 °F - 66.2 °F 94% 30.02 in 5.0 mi NE 5.8 mph - 0.07 in Rain , Thunderstorm Rain
10:04 PM 68.0 °F - 66.2 °F 94% 30.07 in 0.5 mi WSW 5.8 mph - 0.35 in Fog , Rain , Thunderstorm Heavy Thunderstorms and Rain
10:18 PM 66.2 °F - 66.2 °F 100% 30.06 in 0.8 mi ESE 5.8 mph - 0.67 in Rain , Thunderstorm Heavy Thunderstorms and Rain
10:37 PM 68.0 °F - 66.2 °F 94% 30.05 in 10.0 mi ESE 4.6 mph - 0.72 in Thunderstorm Overcast
10:46 PM 68.0 °F - 66.2 °F 94% 30.05 in 10.0 mi Calm Calm - 0.72 in   Overcast
10:53 PM 68.0 °F - 66.0 °F 93% 30.03 in 10.0 mi Calm Calm - 0.72 in   Overcast
10:58 PM 68.0 °F - 66.2 °F 94% 30.05 in 10.0 mi Calm Calm - N/A Thunderstorm Overcast
11:15 PM 68.0 °F - 66.2 °F 94% 30.04 in 10.0 mi East 3.5 mph - N/A   Overcast
11:50 PM 68.0 °F - 66.2 °F 94% 30.04 in 1.8 mi Calm Calm - 0.10 in Rain , Thunderstorm Heavy Thunderstorms and Rain
11:59 PM 66.2 °F - 66.2 °F 100% 30.02 in 1.2 mi East 4.6 mph - 0.10 in Rain , Thunderstorm Thunderstorms and Rain